カタログに戻る

CZ-8A R/B

運用中LEO
NORAD 62980·ROCKET BODY·🇨🇳 China

打ち上げ Feb 11, 2025 から Wenchang Space Launch Site

Loading…

次のパス (今後24時間)

TLE

最新Source: Space-Track

元期: Sep 14, 2026, 00:09 UTC

1 62980U 25030K   26257.00662430  .00000008  00000-0  59505-4 0  9994
2 62980  50.0051 276.9369 0118188 333.2825  26.2035 14.32995738 83104

AllMySatでCZ-8A R/Bをリアルタイム追跡

Download on the App Store